Location: Salamanca
(40.9670°N, 5.6500°W)
Time: 19:04:58
(UTC+01:00)

Daily predictions for brighter satellites

Satellite Brightness Start Highest point End
(mag) Time Altitude Azimuth Time Altitude Azimuth Time Altitude Azimuth
USA 229 DEB 4.0 19:30:24 10° NNW 19:37:23 54° NE 19:44:26 10° SE
USA 229 4.0 19:30:30 10° NNW 19:37:28 54° NE 19:44:32 10° SE
Cosmos 1300 Rocket 3.6 19:37:01 10° S 19:41:26 82° E 19:45:54 10° N
Cosmos 2333 4.4 19:36:21 10° NNW 19:41:58 53° ENE 19:47:35 10° SE
Cosmos 614 Rocket 4.0 19:38:16 10° SSW 19:43:20 90° NNW 19:48:26 10° NNE
Cosmos 1484 Rocket 4.2 19:40:42 10° S 19:44:27 45° W 19:48:11 10° NNW
Cosmos 2237 4.2 19:39:36 10° NNW 19:45:22 81° ENE 19:51:04 10° SSE
COSMOS 2428 2.7 19:40:06 10° NNW 19:45:46 65° ENE 19:51:24 10° SE
Cosmos 2219 Rocket 2.7 19:41:01 10° N 19:46:12 37° ENE 19:51:21 10° SE
Cosmos 1741 Rocket 4.0 19:41:10 10° SSW 19:46:22 77° ESE 19:51:35 10° NNE
Meteor 1-19 Rocket 4.3 19:40:45 10° N 19:46:30 83° E 19:52:19 10° S
Cosmos 1140 Rocket 4.0 19:41:30 10° SSW 19:46:35 64° WNW 19:51:44 10° NNE
Cosmos 2360 Rocket 3.0 19:42:05 10° NNW 19:47:37 57° WSW 19:53:09 10° S
USA 215 4.4 19:45:17 10° NE 19:51:15 40° NNW 19:57:13 10° W
Meteor 2-4 Rocket 3.6 19:47:53 10° N 19:53:21 66° ENE 19:58:40 10° SSE
ALOS 2.7 19:50:36 10° SE 19:54:55 39° ENE 19:59:16 10° N
Hubble Space Telescope 3.1 19:53:00 10° SSW 19:55:07 14° S 19:57:15 10° SE
COSMO-SKYMED 1 3.6 19:53:45 10° N 19:57:58 50° WNW 20:02:09 10° SSW
Cosmos 2227 Rocket 3.1 19:54:22 10° SSE 19:58:58 26° ESE 20:03:36 10° NE
Cosmos 2219 3.3 19:53:39 10° SSW 19:59:25 88° ESE 20:05:11 10° NNE
Cosmos 405 Rocket 3.7 19:58:06 10° NNE 20:01:39 28° ENE 20:05:07 10° SE
SL-08 ROCKET BODY 4.5 19:55:46 10° S 20:01:52 65° E 20:07:59 10° NNE
Meteor 1-23 Rocket 4.2 19:58:09 10° N 20:03:56 67° E 20:09:36 10° SSE
Gbstr 26 Del rocket 4.1 20:02:51 10° W 20:06:19 31° NNW 20:09:41 10° NE
NOSS 3-1 (C) 4.5 19:59:41 10° NNW 20:06:46 43° NE 20:14:05 12° ESE
H-2A R/B 3.5 20:03:55 10° SE 20:07:10 29° ENE 20:10:28 10° N
Cosmos 1570 Rocket 4.3 20:02:15 10° NNW 20:07:28 72° WSW 20:12:40 10° S
Cosmos 468 Rocket 4.4 20:03:25 10° N 20:08:26 44° ENE 20:13:27 10° SE
NOAA 12 4.3 20:05:08 10° S 20:10:27 77° WSW 20:15:49 10° NNW
CZ-2D R/B 4.3 20:08:41 12° ESE 20:11:30 25° ENE 20:14:40 10° NNE
SJ-6B 2.7 20:08:18 10° SSE 20:12:16 86° E 20:16:09 10° NNW
SL-16 R/B 3.7 20:09:33 10° N 20:13:23 18° NE 20:15:19 15° ENE
Spot 2 Rocket 3.7 20:10:49 10° SE 20:15:38 47° ENE 20:20:31 10° N
Resurs 01 Rocket 1.8 20:12:46 10° SE 20:16:59 48° ENE 20:21:14 10° N
Atlas Centaur 2 4.2 20:13:00 10° SSW 20:18:29 21° SSE 20:22:23 13° ESE
GEOS 3 Rocket 4.4 20:16:53 12° ENE 20:21:12 32° ESE 20:25:52 10° S
Cosmos 2074 Rocket 4.0 20:16:10 10° S 20:22:25 84° E 20:28:44 10° N
ATLAS CENTAUR R/B 1.7 20:18:20 10° SSW 20:22:29 37° SE 20:23:12 30° E
Resurs 1-3 3.8 20:18:54 10° SE 20:23:05 46° ENE 20:27:17 10° N
Cosmos 1025 Rocket 3.1 20:20:06 10° N 20:24:31 82° W 20:28:54 10° S
Okean 1 Rocket 4.4 20:21:37 10° SSW 20:25:52 43° WNW 20:30:10 10° N
Cosmos 1441 Rocket 4.2 20:24:52 10° NNE 20:28:17 26° ENE 20:28:32 26° E
FENGYUN 3A 3.6 20:23:25 10° SSE 20:28:49 83° ENE 20:34:17 10° NNW
Cosmos 1892 Rocket 3.6 20:25:14 10° N 20:29:33 56° E 20:33:51 10° SSE
Cosmos 2184 Rocket 4.0 20:24:35 10° S 20:30:54 87° W 20:37:10 10° N
NOSS 0 Rocket 3.9 20:24:47 10° NNW 20:30:57 70° ENE 20:37:03 10° SSE
Cosmos 1814 Rocket 4.1 20:26:34 10° N 20:31:35 52° ENE 20:35:40 15° SE
Envisat 4.1 20:31:53 23° ENE 20:32:26 23° ENE 20:36:24 10° NNE
BREEZE-M DEB (TANK) 3.6 20:31:49 10° NW 20:35:07 76° NNE 20:41:15 20° ESE
Cosmos 1980 3.7 20:30:55 10° NNW 20:36:31 60° ENE 20:40:58 16° SE
Cosmos 2333 Rocket 2.1 20:33:44 10° NNW 20:39:31 79° ENE 20:45:17 10° SSE
Okean 2 3.7 20:40:19 10° NNW 20:44:29 71° W 20:48:38 10° S
GPS 2-04 Rocket1 3.8 20:40:39 10° WSW 20:44:36 38° S 20:46:03 29° SE
SL-19 R/B 4.4 20:41:05 10° SSE 20:46:50 86° WSW 20:53:03 10° NNW
USA 32 4.4 20:42:32 10° N 20:47:28 41° E 20:49:14 31° ESE
Nadezhda 3 Rocket 3.9 20:41:46 10° N 20:47:54 64° E 20:54:03 10° SSE
Cosmos 1544 Rocket 3.4 20:47:17 10° S 20:51:37 90° SE 20:55:58 10° N
Abrixas rocket 3.8 20:50:41 10° WNW 20:53:37 27° NNW 20:54:21 25° N
Helios 1B rocket 2.3 20:53:28 10° NNE 20:57:36 63° ESE 21:01:42 10° S
OTV 4 1.7 20:55:51 10° WSW 20:57:59 35° SW 20:57:59 35° SW
Cosmos 2154 Rocket 3.9 20:54:18 10° S 21:00:39 85° E 21:07:01 10° N
Cosmos 2341 Rocket 3.9 20:56:02 10° S 21:02:18 66° E 21:08:38 10° NNE
Cosmos 2082 3.6 20:56:45 10° SSW 21:02:28 80° ESE 21:08:12 10° NNE
Cosmos 1486 Rocket 3.9 20:58:09 10° SSW 21:03:28 82° ESE 21:08:48 10° NNE
Helios 1A 2.8 21:02:59 46° SSE 21:04:09 83° ENE 21:08:19 10° NNW
Cosmos 1602 Rocket 4.3 21:03:08 10° N 21:06:15 38° NNE 21:06:15 38° NNE
USA 186 4.4 21:10:55 11° NNW 21:10:55 11° NNW 21:11:04 10° NNW
Cosmos 1975 2.7 21:04:13 10° S 21:08:15 86° W 21:12:20 10° N
Cosmos 841 Rocket 3.4 21:04:21 10° NNW 21:09:28 65° ENE 21:10:10 57° ESE
Cosmos 1626 Rocket 4.1 21:07:12 10° N 21:10:34 44° NNE 21:10:34 44° NNE
Meteor 2-8 Rocket 4.3 21:09:48 10° N 21:15:51 70° E 21:18:15 38° SSE
Meteor 2-19 Rocket 4.4 21:10:42 10° S 21:16:42 60° E 21:22:45 10° NNE
Spot 1 4.2 21:16:12 44° SSW 21:17:21 66° WSW 21:21:33 10° NNW
Cosmos 1437 4.2 21:14:22 10° NNW 21:17:27 37° W 21:17:48 36° WSW
Cosmos 1763 Rocket 3.4 21:13:15 10° NNW 21:18:25 85° WSW 21:19:54 48° SSE
Cosmos 1515 4.4 21:15:39 10° NNW 21:19:25 52° W 21:20:20 41° SW
Cosmos 2237 Rocket 2.5 21:15:11 10° NNW 21:20:50 65° WSW 21:24:00 26° S
Cosmos 2297 Rocket 2.2 21:16:07 10° SSW 21:21:46 83° WNW 21:27:28 10° NNE
Cosmos 962 Rocket 4.5 21:21:36 10° S 21:27:47 79° W 21:33:56 10° N
Cosmos 1066 Rocket 4.1 21:22:34 10° NNW 21:28:10 82° W 21:30:00 44° S
Cosmos 1455 Rocket 4.2 21:24:46 10° SSW 21:28:55 42° WNW 21:33:04 10° N
Cosmos 2219 Rocket 3.9 21:25:09 10° NW 21:30:01 31° WSW 21:34:52 10° SSW
Cosmos 332 Rocket 3.9 21:26:41 10° NNW 21:31:33 73° WSW 21:31:45 72° SW
Hubble Space Telescope 3.5 21:33:46 10° SW 21:34:08 11° SSW 21:34:08 11° SSW
OAO 3 Rocket 4.4 21:31:34 10° WSW 21:34:50 32° SSW 21:34:50 32° SSW
Cosmos 371 Rocket 3.7 21:35:32 10° NNW 21:39:37 61° NW 21:39:37 61° NW
NOSS 3-1 (A) 4.1 21:33:33 10° NW 21:41:16 81° WSW 21:44:03 47° SSE
Cosmos 2227 Rocket 3.3 21:37:24 10° SW 21:42:45 43° WNW 21:48:10 10° NNE
ATLAS 2AS CENTAUR R/B 3.5 21:39:22 10° NNW 21:46:54 41° NE 21:46:54 41° NE
Resurs 01 Rocket 4.5 21:51:08 10° SW 21:53:43 15° W 21:56:18 10° NW
SL-16 R/B 2.5 21:52:27 10° NNW 21:57:15 62° NW 21:57:15 62° NW
Atlas Centaur 2 4.0 22:01:09 10° SW 22:05:03 25° SSW 22:05:03 25° SSW
SL-8 Rocket 4.4 22:09:44 54° WSW 22:10:41 61° W 22:16:57 10° N
Envisat 4.2 22:12:05 38° WNW 22:12:05 38° WNW 22:16:00 10° NNW
ATLAS 2AS CENTAUR R/B 4.5 23:30:31 10° NW 23:34:22 30° NW 23:34:22 30° NW
